Location: *
(49.6619°S, 177.4603°W)
Time: 06:30:22
(UTC+00:00)

Cosmos 1833 Rocket - Visible Passes

Search period start: 24 September 2023 00:00
Search period end: 04 October 2023 00:00
Orbit: 833 x 838 km, 71.0° (Epoch: 23 September)

Date Brightness Start Highest point End Pass type
(mag) Time Alt. Az. Time Alt. Az. Time Alt. Az.
24 Sep 4.7 07:57:36 10° S 08:00:42 15° SSE 08:02:44 12° SE visible
24 Sep 3.9 09:40:36 10° SSW 09:44:25 37° S 09:44:25 37° S visible
24 Sep 5.0 11:24:49 10° SW 11:26:06 16° SW 11:26:06 16° SW visible
25 Sep 4.8 07:40:49 10° S 07:43:44 14° SSE 07:46:19 11° SE visible
25 Sep 3.7 09:23:45 10° SSW 09:28:01 39° SSE 09:28:01 39° SSE visible
25 Sep 4.9 11:07:54 10° SW 11:09:42 19° SW 11:09:42 19° SW visible
26 Sep 4.8 07:24:03 10° S 07:26:46 13° SSE 07:29:28 10° SE visible
26 Sep 3.6 09:06:55 10° SSW 09:11:37 40° SSE 09:11:37 40° SSE visible
26 Sep 4.6 10:50:59 10° SW 10:53:18 23° SW 10:53:18 23° SW visible
27 Sep 4.8 07:07:17 10° S 07:09:48 13° SSE 07:12:19 10° SE visible
27 Sep 3.5 08:50:05 10° SSW 08:55:14 39° SE 08:55:14 39° SE visible
27 Sep 4.4 10:34:05 10° SW 10:36:56 27° WSW 10:36:56 27° WSW visible
28 Sep 4.8 06:50:32 10° S 06:52:50 12° SSE 06:55:08 10° SE visible
28 Sep 3.5 08:33:15 10° SSW 08:38:33 37° SE 08:38:53 37° ESE visible
28 Sep 4.1 10:17:10 10° SW 10:20:35 33° WSW 10:20:35 33° WSW visible
29 Sep 4.8 06:33:47 10° S 06:35:52 12° SSE 06:37:55 10° SE visible
29 Sep 3.5 08:16:25 10° SSW 08:21:39 35° SE 08:22:34 33° ESE visible
29 Sep 3.8 10:00:17 10° SW 10:04:15 40° WSW 10:04:15 40° WSW visible
30 Sep 3.6 07:59:36 10° SSW 08:04:44 33° SE 08:06:15 29° ESE visible
30 Sep 3.4 09:43:24 10° SW 09:47:57 48° WSW 09:47:57 48° WSW visible
01 Oct 3.7 07:42:47 10° SSW 07:47:50 31° SE 07:49:59 24° E visible
01 Oct 3.1 09:26:31 10° SW 09:31:41 57° W 09:31:41 57° W visible
02 Oct 3.8 07:25:57 10° SSW 07:30:55 29° SE 07:33:45 20° E visible
02 Oct 2.8 09:09:38 10° SW 09:15:16 63° WNW 09:15:26 63° WNW visible
03 Oct 3.9 07:09:07 10° SSW 07:14:00 28° SE 07:17:32 16° E visible
03 Oct 2.8 08:52:45 10° SSW 08:58:26 68° WNW 08:59:14 60° NNW visible
03 Oct 5.2 10:39:29 10° WSW 10:40:56 11° W 10:40:56 11° W visible
